Location: Fours
(44.3167°N, 6.7000°E)
Time: 12:02:11
(UTC+00:00)

Cosmos 2098 - Pass Details

Date: 01 June 2022
Orbit: 387 x 1577 km, 82.9° (Epoch: 30 June)

Event Time Altitude Azimuth Distance (km) Brightness Sun altitude
Rises 03:02:38 0° 341° (NNW) 2,294 8.3 -7.9°
Reaches altitude 10° 03:04:44 10° 330° (NNW) 1,428 7.1 -7.6°
Maximum altitude 03:07:22 29° 267° (W) 776 5.2 -7.3°
Drops below altitude 10° 03:10:12 10° 205° (SSW) 1,539 6.5 -6.9°
Enters shadow 03:11:14 - 199° (SSW) 1,958 7.1 -6.8°
